owner,sensor,date,latitude,longitude,air_temperature,qcFlag 
DISL,ioos:station:DISL:CATA:1,2013-03-01T00:00:00Z,30.3085,-88.1395,10.65,1111122 
DISL,ioos:station:DISL:CATA:1,2013-03-01T00:30:00Z,30.3085,-88.1395,10.6,1111122 
DISL,ioos:station:DISL:CATA:1,2013-03-01T01:00:00Z,30.3085,-88.1395,9.95,1111122 
DISL,ioos:station:DISL:CATA:1,2013-03-01T01:30:00Z,30.3085,-88.1395,9.91,1111122 
DISL,ioos:station:DISL:CATA:1,2013-03-01T02:00:00Z,30.3085,-88.1395,9.67,1111122 
DISL,ioos:station:DISL:CATA:1,2013-03-01T02:30:00Z,30.3085,-88.1395,9.5,1111122 
DISL,ioos:station:DISL:CATA:1,2013-03-01T03:00:00Z,30.3085,-88.1395,9.75,1111122 
DISL,ioos:station:DISL:CATA:1,2013-03-01T03:30:00Z,30.3085,-88.1395,9.37,1111122 
DISL,ioos:station:DISL:CATA:1,2013-03-01T04:00:00Z,30.3085,-88.1395,9.78,1111122 
DISL,ioos:station:DISL:CATA:1,2013-03-01T04:30:00Z,30.3085,-88.1395,9.58,1111122 
DISL,ioos:station:DISL:CATA:1,2013-03-01T05:00:00Z,30.3085,-88.1395,9.65,1111122 
DISL,ioos:station:DISL:CATA:1,2013-03-01T05:30:00Z,30.3085,-88.1395,8.89,1111122 
DISL,ioos:station:DISL:CATA:1,2013-03-01T06:30:00Z,30.3085,-88.1395,8.59,1111122 
DISL,ioos:station:DISL:CATA:1,2013-03-01T07:00:00Z,30.3085,-88.1395,8.35,1111122 
DISL,ioos:station:DISL:CATA:1,2013-03-01T07:30:00Z,30.3085,-88.1395,7.529,1111122 
DISL,ioos:station:DISL:CATA:1,2013-03-01T08:00:00Z,30.3085,-88.1395,7.495,1111122 
DISL,ioos:station:DISL:CATA:1,2013-03-01T08:30:00Z,30.3085,-88.1395,7.495,1111122 
DISL,ioos:station:DISL:CATA:1,2013-03-01T09:00:00Z,30.3085,-88.1395,7.083,1111122 
DISL,ioos:station:DISL:CATA:1,2013-03-01T09:30:00Z,30.3085,-88.1395,5.951,1111122 
DISL,ioos:station:DISL:CATA:1,2013-03-01T10:00:00Z,30.3085,-88.1395,5.813,1111122 
DISL,ioos:station:DISL:CATA:1,2013-03-01T10:30:00Z,30.3085,-88.1395,5.54,1111122 
DISL,ioos:station:DISL:CATA:1,2013-03-01T11:00:00Z,30.3085,-88.1395,6.022,1111122 
DISL,ioos:station:DISL:CATA:1,2013-03-01T11:30:00Z,30.3085,-88.1395,5.51,1111122 
DISL,ioos:station:DISL:CATA:1,2013-03-01T12:00:00Z,30.3085,-88.1395,5.373,1111122 
DISL,ioos:station:DISL:CATA:1,2013-03-01T12:30:00Z,30.3085,-88.1395,5.272,1111122 
DISL,ioos:station:DISL:CATA:1,2013-03-01T13:00:00Z,30.3085,-88.1395,5.032,1111122 
DISL,ioos:station:DISL:CATA:1,2013-03-01T13:30:00Z,30.3085,-88.1395,5.616,1111122 
DISL,ioos:station:DISL:CATA:1,2013-03-01T14:00:00Z,30.3085,-88.1395,6.607,1111122 
DISL,ioos:station:DISL:CATA:1,2013-03-01T14:30:00Z,30.3085,-88.1395,6.913,1111122 
DISL,ioos:station:DISL:CATA:1,2013-03-01T15:00:00Z,30.3085,-88.1395,7.907,1111122 
DISL,ioos:station:DISL:CATA:1,2013-03-01T15:30:00Z,30.3085,-88.1395,8.15,1111122 
DISL,ioos:station:DISL:CATA:1,2013-03-01T16:00:00Z,30.3085,-88.1395,8.13,1111122 
DISL,ioos:station:DISL:CATA:1,2013-03-01T16:30:00Z,30.3085,-88.1395,8.44,1111122 
DISL,ioos:station:DISL:CATA:1,2013-03-01T17:00:00Z,30.3085,-88.1395,9.45,1111122 
DISL,ioos:station:DISL:CATA:1,2013-03-01T17:30:00Z,30.3085,-88.1395,9.62,1111122 
DISL,ioos:station:DISL:CATA:1,2013-03-01T18:00:00Z,30.3085,-88.1395,9.35,1111122 
DISL,ioos:station:DISL:CATA:1,2013-03-01T18:30:00Z,30.3085,-88.1395,8.94,1111122 
DISL,ioos:station:DISL:CATA:1,2013-03-01T19:00:00Z,30.3085,-88.1395,9.07,1111122 
DISL,ioos:station:DISL:CATA:1,2013-03-01T19:30:00Z,30.3085,-88.1395,9.97,1111122 
DISL,ioos:station:DISL:CATA:1,2013-03-01T20:00:00Z,30.3085,-88.1395,10.34,1111122 
DISL,ioos:station:DISL:CATA:1,2013-03-01T20:30:00Z,30.3085,-88.1395,10.72,1111122 
DISL,ioos:station:DISL:CATA:1,2013-03-01T21:00:00Z,30.3085,-88.1395,11.03,1111122 
DISL,ioos:station:DISL:CATA:1,2013-03-01T21:30:00Z,30.3085,-88.1395,11.58,1111122 
DISL,ioos:station:DISL:CATA:1,2013-03-01T22:00:00Z,30.3085,-88.1395,11.54,1111122 
DISL,ioos:station:DISL:CATA:1,2013-03-01T22:30:00Z,30.3085,-88.1395,11.85,1111122 
DISL,ioos:station:DISL:CATA:1,2013-03-01T23:00:00Z,30.3085,-88.1395,12.37,1111122 
DISL,ioos:station:DISL:CATA:1,2013-03-01T23:30:00Z,30.3085,-88.1395,12.5,1111122 
DISL,ioos:station:DISL:CATA:1,2013-03-02T00:00:00Z,30.3085,-88.1395,12.78,1111122 
DISL,ioos:station:DISL:CATA:1,2013-03-02T00:30:00Z,30.3085,-88.1395,11.99,1111122 
DISL,ioos:station:DISL:CATA:1,2013-03-02T01:00:00Z,30.3085,-88.1395,11.31,1111122 
DISL,ioos:station:DISL:CATA:1,2013-03-02T01:30:00Z,30.3085,-88.1395,10.81,1111122 
DISL,ioos:station:DISL:CATA:1,2013-03-02T02:00:00Z,30.3085,-88.1395,10.29,1111122 
DISL,ioos:station:DISL:CATA:1,2013-03-02T02:30:00Z,30.3085,-88.1395,9.5,1111122 
DISL,ioos:station:DISL:CATA:1,2013-03-02T03:00:00Z,30.3085,-88.1395,9.51,1111122 
DISL,ioos:station:DISL:CATA:1,2013-03-02T03:30:00Z,30.3085,-88.1395,8.82,1111122 
DISL,ioos:station:DISL:CATA:1,2013-03-02T04:00:00Z,30.3085,-88.1395,7.592,1111122 
DISL,ioos:station:DISL:CATA:1,2013-03-02T04:30:00Z,30.3085,-88.1395,7.048,1111122 
DISL,ioos:station:DISL:CATA:1,2013-03-02T05:00:00Z,30.3085,-88.1395,6.259,1111122 
DISL,ioos:station:DISL:CATA:1,2013-03-02T05:30:00Z,30.3085,-88.1395,5.402,1111122 
DISL,ioos:station:DISL:CATA:1,2013-03-02T06:30:00Z,30.3085,-88.1395,4.523,1111122 
DISL,ioos:station:DISL:CATA:1,2013-03-02T07:00:00Z,30.3085,-88.1395,4.525,1111122 
DISL,ioos:station:DISL:CATA:1,2013-03-02T07:30:00Z,30.3085,-88.1395,3.529,1111122 
DISL,ioos:station:DISL:CATA:1,2013-03-02T08:00:00Z,30.3085,-88.1395,4.559,1111122 
DISL,ioos:station:DISL:CATA:1,2013-03-02T08:30:00Z,30.3085,-88.1395,4.113,1111122 
DISL,ioos:station:DISL:CATA:1,2013-03-02T09:00:00Z,30.3085,-88.1395,3.565,1111122 
DISL,ioos:station:DISL:CATA:1,2013-03-02T09:30:00Z,30.3085,-88.1395,3.327,1111122 
DISL,ioos:station:DISL:CATA:1,2013-03-02T10:00:00Z,30.3085,-88.1395,2.369,1111122 
DISL,ioos:station:DISL:CATA:1,2013-03-02T10:30:00Z,30.3085,-88.1395,2.065,1111122 
DISL,ioos:station:DISL:CATA:1,2013-03-02T11:00:00Z,30.3085,-88.1395,2.514,1111122 
DISL,ioos:station:DISL:CATA:1,2013-03-02T11:30:00Z,30.3085,-88.1395,2.479,1111122 
DISL,ioos:station:DISL:CATA:1,2013-03-02T12:00:00Z,30.3085,-88.1395,1.449,1111122 
DISL,ioos:station:DISL:CATA:1,2013-03-02T12:30:00Z,30.3085,-88.1395,2.479,1111122 
DISL,ioos:station:DISL:CATA:1,2013-03-02T13:00:00Z,30.3085,-88.1395,1.552,1111122 
DISL,ioos:station:DISL:CATA:1,2013-03-02T13:30:00Z,30.3085,-88.1395,1.861,1111122 
DISL,ioos:station:DISL:CATA:1,2013-03-02T14:00:00Z,30.3085,-88.1395,2.645,1111122 
DISL,ioos:station:DISL:CATA:1,2013-03-02T14:30:00Z,30.3085,-88.1395,3.152,1111122 
DISL,ioos:station:DISL:CATA:1,2013-03-02T15:00:00Z,30.3085,-88.1395,4.515,1111122 
DISL,ioos:station:DISL:CATA:1,2013-03-02T15:30:00Z,30.3085,-88.1395,4.784,1111122 
DISL,ioos:station:DISL:CATA:1,2013-03-02T16:00:00Z,30.3085,-88.1395,5.024,1111122 
DISL,ioos:station:DISL:CATA:1,2013-03-02T16:30:00Z,30.3085,-88.1395,5.779,1111122 
DISL,ioos:station:DISL:CATA:1,2013-03-02T17:00:00Z,30.3085,-88.1395,6.253,1111122 
DISL,ioos:station:DISL:CATA:1,2013-03-02T17:30:00Z,30.3085,-88.1395,6.521,1111122 
DISL,ioos:station:DISL:CATA:1,2013-03-02T18:00:00Z,30.3085,-88.1395,7.307,1111122 
DISL,ioos:station:DISL:CATA:1,2013-03-02T18:30:00Z,30.3085,-88.1395,6.485,1111122 
DISL,ioos:station:DISL:CATA:1,2013-03-02T19:00:00Z,30.3085,-88.1395,7.073,1111122 
DISL,ioos:station:DISL:CATA:1,2013-03-02T19:30:00Z,30.3085,-88.1395,6.73,1111122 
DISL,ioos:station:DISL:CATA:1,2013-03-02T20:00:00Z,30.3085,-88.1395,6.938,1111122 
DISL,ioos:station:DISL:CATA:1,2013-03-02T20:30:00Z,30.3085,-88.1395,6.594,1111122 
DISL,ioos:station:DISL:CATA:1,2013-03-02T21:00:00Z,30.3085,-88.1395,7.212,1111122 
DISL,ioos:station:DISL:CATA:1,2013-03-02T21:30:00Z,30.3085,-88.1395,6.526,1111122 
DISL,ioos:station:DISL:CATA:1,2013-03-02T22:00:00Z,30.3085,-88.1395,6.252,1111122 
DISL,ioos:station:DISL:CATA:1,2013-03-02T22:30:00Z,30.3085,-88.1395,5.504,1111122 
DISL,ioos:station:DISL:CATA:1,2013-03-02T23:00:00Z,30.3085,-88.1395,5.813,1111122 
DISL,ioos:station:DISL:CATA:1,2013-03-02T23:30:00Z,30.3085,-88.1395,5.504,1111122 
DISL,ioos:station:DISL:CATA:1,2013-03-03T00:00:00Z,30.3085,-88.1395,5.539,1111122 
DISL,ioos:station:DISL:CATA:1,2013-03-03T00:30:00Z,30.3085,-88.1395,5.128,1111122 
DISL,ioos:station:DISL:CATA:1,2013-03-03T01:00:00Z,30.3085,-88.1395,4.172,1111122 
DISL,ioos:station:DISL:CATA:1,2013-03-03T01:30:00Z,30.3085,-88.1395,4.417,1111122 
DISL,ioos:station:DISL:CATA:1,2013-03-03T02:00:00Z,30.3085,-88.1395,4.593,1111122 
DISL,ioos:station:DISL:CATA:1,2013-03-03T02:30:00Z,30.3085,-88.1395,4.284,1111122 
DISL,ioos:station:DISL:CATA:1,2013-03-03T03:00:00Z,30.3085,-88.1395,3.769,1111122 
DISL,ioos:station:DISL:CATA:1,2013-03-03T03:30:00Z,30.3085,-88.1395,3.804,1111122 
DISL,ioos:station:DISL:CATA:1,2013-03-03T04:00:00Z,30.3085,-88.1395,3.22,1111122 
DISL,ioos:station:DISL:CATA:1,2013-03-03T04:30:00Z,30.3085,-88.1395,3.083,1111122 
DISL,ioos:station:DISL:CATA:1,2013-03-03T05:00:00Z,30.3085,-88.1395,3.529,1111122 
DISL,ioos:station:DISL:CATA:1,2013-03-03T05:30:00Z,30.3085,-88.1395,3.22,1111122 
DISL,ioos:station:DISL:CATA:1,2013-03-03T06:30:00Z,30.3085,-88.1395,2.637,1111122 
DISL,ioos:station:DISL:CATA:1,2013-03-03T07:00:00Z,30.3085,-88.1395,2.605,1111122 
DISL,ioos:station:DISL:CATA:1,2013-03-03T07:30:00Z,30.3085,-88.1395,2.606,1111122 
DISL,ioos:station:DISL:CATA:1,2013-03-03T08:00:00Z,30.3085,-88.1395,2.812,1111122 
DISL,ioos:station:DISL:CATA:1,2013-03-03T08:30:00Z,30.3085,-88.1395,1.716,1111122 
DISL,ioos:station:DISL:CATA:1,2013-03-03T09:00:00Z,30.3085,-88.1395,1.861,1111122 
DISL,ioos:station:DISL:CATA:1,2013-03-03T09:30:00Z,30.3085,-88.1395,1.209,1111122 
DISL,ioos:station:DISL:CATA:1,2013-03-03T10:00:00Z,30.3085,-88.1395,0.453,1111122 
DISL,ioos:station:DISL:CATA:1,2013-03-03T10:30:00Z,30.3085,-88.1395,0.797,1111122 
DISL,ioos:station:DISL:CATA:1,2013-03-03T11:00:00Z,30.3085,-88.1395,0.493,1111122 
DISL,ioos:station:DISL:CATA:1,2013-03-03T11:30:00Z,30.3085,-88.1395,-0.2,11133222 
DISL,ioos:station:DISL:CATA:1,2013-03-03T12:00:00Z,30.3085,-88.1395,-0.7,11133222 
DISL,ioos:station:DISL:CATA:1,2013-03-03T12:30:00Z,30.3085,-88.1395,-0.5,11133222 
DISL,ioos:station:DISL:CATA:1,2013-03-03T13:00:00Z,30.3085,-88.1395,-1.0,11133222 
DISL,ioos:station:DISL:CATA:1,2013-03-03T13:30:00Z,30.3085,-88.1395,-0.4,11133222 
DISL,ioos:station:DISL:CATA:1,2013-03-03T14:00:00Z,30.3085,-88.1395,0.558,1111122 
DISL,ioos:station:DISL:CATA:1,2013-03-03T14:30:00Z,30.3085,-88.1395,1.312,1111122 
DISL,ioos:station:DISL:CATA:1,2013-03-03T15:00:00Z,30.3085,-88.1395,2.193,1111122 
DISL,ioos:station:DISL:CATA:1,2013-03-03T15:30:00Z,30.3085,-88.1395,1.95,1111122 
DISL,ioos:station:DISL:CATA:1,2013-03-03T16:00:00Z,30.3085,-88.1395,2.976,1111122 
DISL,ioos:station:DISL:CATA:1,2013-03-03T16:30:00Z,30.3085,-88.1395,3.79,1111122 
DISL,ioos:station:DISL:CATA:1,2013-03-03T17:00:00Z,30.3085,-88.1395,3.926,1111122 
DISL,ioos:station:DISL:CATA:1,2013-03-03T17:30:00Z,30.3085,-88.1395,4.132,1111122 
DISL,ioos:station:DISL:CATA:1,2013-03-03T18:00:00Z,30.3085,-88.1395,5.326,1111122 
DISL,ioos:station:DISL:CATA:1,2013-03-03T18:30:00Z,30.3085,-88.1395,6.555,1111122 
DISL,ioos:station:DISL:CATA:1,2013-03-03T19:00:00Z,30.3085,-88.1395,6.312,1111122 
DISL,ioos:station:DISL:CATA:1,2013-03-03T19:30:00Z,30.3085,-88.1395,5.523,1111122 
DISL,ioos:station:DISL:CATA:1,2013-03-03T20:00:00Z,30.3085,-88.1395,6.998,1111122 
DISL,ioos:station:DISL:CATA:1,2013-03-03T20:30:00Z,30.3085,-88.1395,7.65,1111122 
DISL,ioos:station:DISL:CATA:1,2013-03-03T21:00:00Z,30.3085,-88.1395,8.02,1111122 
DISL,ioos:station:DISL:CATA:1,2013-03-03T21:30:00Z,30.3085,-88.1395,9.05,1111122 
DISL,ioos:station:DISL:CATA:1,2013-03-03T22:00:00Z,30.3085,-88.1395,8.23,1111122 
DISL,ioos:station:DISL:CATA:1,2013-03-03T22:30:00Z,30.3085,-88.1395,9.13,1111122 
DISL,ioos:station:DISL:CATA:1,2013-03-03T23:00:00Z,30.3085,-88.1395,8.92,1111122 
DISL,ioos:station:DISL:CATA:1,2013-03-03T23:30:00Z,30.3085,-88.1395,9.43,1111122 
DISL,ioos:station:DISL:CATA:1,2013-03-04T00:00:00Z,30.3085,-88.1395,9.61,1111122 
DISL,ioos:station:DISL:CATA:1,2013-03-04T00:30:00Z,30.3085,-88.1395,8.96,1111122 
DISL,ioos:station:DISL:CATA:1,2013-03-04T01:00:00Z,30.3085,-88.1395,9.31,1111122 
DISL,ioos:station:DISL:CATA:1,2013-03-04T01:30:00Z,30.3085,-88.1395,9.55,1111122 
DISL,ioos:station:DISL:CATA:1,2013-03-04T02:00:00Z,30.3085,-88.1395,9.89,1111122 
DISL,ioos:station:DISL:CATA:1,2013-03-04T02:30:00Z,30.3085,-88.1395,9.55,1111122 
DISL,ioos:station:DISL:CATA:1,2013-03-04T03:00:00Z,30.3085,-88.1395,9.34,1111122 
DISL,ioos:station:DISL:CATA:1,2013-03-04T03:30:00Z,30.3085,-88.1395,9.28,1111122 
DISL,ioos:station:DISL:CATA:1,2013-03-04T04:00:00Z,30.3085,-88.1395,8.49,1111122 
DISL,ioos:station:DISL:CATA:1,2013-03-04T04:30:00Z,30.3085,-88.1395,8.49,1111122 
DISL,ioos:station:DISL:CATA:1,2013-03-04T05:00:00Z,30.3085,-88.1395,8.46,1111122 
DISL,ioos:station:DISL:CATA:1,2013-03-04T05:30:00Z,30.3085,-88.1395,8.15,1111122 
DISL,ioos:station:DISL:CATA:1,2013-03-04T06:30:00Z,30.3085,-88.1395,7.392,1111122 
DISL,ioos:station:DISL:CATA:1,2013-03-04T07:00:00Z,30.3085,-88.1395,7.118,1111122 
DISL,ioos:station:DISL:CATA:1,2013-03-04T07:30:00Z,30.3085,-88.1395,7.667,1111122 
DISL,ioos:station:DISL:CATA:1,2013-03-04T08:00:00Z,30.3085,-88.1395,8.01,1111122 
DISL,ioos:station:DISL:CATA:1,2013-03-04T08:30:00Z,30.3085,-88.1395,8.04,1111122 
DISL,ioos:station:DISL:CATA:1,2013-03-04T09:00:00Z,30.3085,-88.1395,8.43,1111122 
DISL,ioos:station:DISL:CATA:1,2013-03-04T09:30:00Z,30.3085,-88.1395,8.63,1111122 
DISL,ioos:station:DISL:CATA:1,2013-03-04T10:00:00Z,30.3085,-88.1395,9.28,1111122 
DISL,ioos:station:DISL:CATA:1,2013-03-04T10:30:00Z,30.3085,-88.1395,9.35,1111122 
DISL,ioos:station:DISL:CATA:1,2013-03-04T11:00:00Z,30.3085,-88.1395,9.62,1111122 
DISL,ioos:station:DISL:CATA:1,2013-03-04T11:30:00Z,30.3085,-88.1395,9.25,1111122 
DISL,ioos:station:DISL:CATA:1,2013-03-04T12:00:00Z,30.3085,-88.1395,9.31,1111122 
DISL,ioos:station:DISL:CATA:1,2013-03-04T12:30:00Z,30.3085,-88.1395,9.21,1111122 
DISL,ioos:station:DISL:CATA:1,2013-03-04T13:00:00Z,30.3085,-88.1395,9.89,1111122 
DISL,ioos:station:DISL:CATA:1,2013-03-04T13:30:00Z,30.3085,-88.1395,10.5,1111122 
DISL,ioos:station:DISL:CATA:1,2013-03-04T14:00:00Z,30.3085,-88.1395,10.57,1111122 
DISL,ioos:station:DISL:CATA:1,2013-03-04T14:30:00Z,30.3085,-88.1395,11.03,1111122 
DISL,ioos:station:DISL:CATA:1,2013-03-04T15:00:00Z,30.3085,-88.1395,11.51,1111122 
DISL,ioos:station:DISL:CATA:1,2013-03-04T15:30:00Z,30.3085,-88.1395,11.54,1111122 
DISL,ioos:station:DISL:CATA:1,2013-03-04T16:00:00Z,30.3085,-88.1395,12.23,1111122 
DISL,ioos:station:DISL:CATA:1,2013-03-04T16:30:00Z,30.3085,-88.1395,12.19,1111122 
DISL,ioos:station:DISL:CATA:1,2013-03-04T17:00:00Z,30.3085,-88.1395,12.84,1111122 
DISL,ioos:station:DISL:CATA:1,2013-03-04T17:30:00Z,30.3085,-88.1395,12.87,1111122 
DISL,ioos:station:DISL:CATA:1,2013-03-04T18:00:00Z,30.3085,-88.1395,12.76,1111122 
DISL,ioos:station:DISL:CATA:1,2013-03-04T18:30:00Z,30.3085,-88.1395,13.69,1111122 
DISL,ioos:station:DISL:CATA:1,2013-03-04T19:00:00Z,30.3085,-88.1395,14.47,1111122 
DISL,ioos:station:DISL:CATA:1,2013-03-04T19:30:00Z,30.3085,-88.1395,14.47,1111122 
DISL,ioos:station:DISL:CATA:1,2013-03-04T20:00:00Z,30.3085,-88.1395,14.34,1111122 
DISL,ioos:station:DISL:CATA:1,2013-03-04T20:30:00Z,30.3085,-88.1395,14.44,1111122 
DISL,ioos:station:DISL:CATA:1,2013-03-04T21:00:00Z,30.3085,-88.1395,14.17,1111122 
DISL,ioos:station:DISL:CATA:1,2013-03-04T21:30:00Z,30.3085,-88.1395,14.27,1111122 
DISL,ioos:station:DISL:CATA:1,2013-03-04T22:00:00Z,30.3085,-88.1395,15.13,1111122 
DISL,ioos:station:DISL:CATA:1,2013-03-04T22:30:00Z,30.3085,-88.1395,14.92,1111122 
DISL,ioos:station:DISL:CATA:1,2013-03-04T23:00:00Z,30.3085,-88.1395,14.99,1111122 
DISL,ioos:station:DISL:CATA:1,2013-03-04T23:30:00Z,30.3085,-88.1395,15.09,1111122 
DISL,ioos:station:DISL:CATA:1,2013-03-05T00:00:00Z,30.3085,-88.1395,14.62,1111122 
DISL,ioos:station:DISL:CATA:1,2013-03-05T00:30:00Z,30.3085,-88.1395,14.83,1111122 
DISL,ioos:station:DISL:CATA:1,2013-03-05T01:00:00Z,30.3085,-88.1395,14.36,1111122 
DISL,ioos:station:DISL:CATA:1,2013-03-05T01:30:00Z,30.3085,-88.1395,13.88,1111122 
DISL,ioos:station:DISL:CATA:1,2013-03-05T02:00:00Z,30.3085,-88.1395,13.5,1111122 
DISL,ioos:station:DISL:CATA:1,2013-03-05T02:30:00Z,30.3085,-88.1395,13.84,1111122 
DISL,ioos:station:DISL:CATA:1,2013-03-05T03:00:00Z,30.3085,-88.1395,14.53,1111122 
DISL,ioos:station:DISL:CATA:1,2013-03-05T03:30:00Z,30.3085,-88.1395,14.66,1111122 
DISL,ioos:station:DISL:CATA:1,2013-03-05T04:00:00Z,30.3085,-88.1395,14.97,1111122 
DISL,ioos:station:DISL:CATA:1,2013-03-05T04:30:00Z,30.3085,-88.1395,14.29,1111122 
DISL,ioos:station:DISL:CATA:1,2013-03-05T05:00:00Z,30.3085,-88.1395,14.63,1111122 
DISL,ioos:station:DISL:CATA:1,2013-03-05T05:30:00Z,30.3085,-88.1395,14.6,1111122 
DISL,ioos:station:DISL:CATA:1,2013-03-05T06:30:00Z,30.3085,-88.1395,14.53,1111122 
DISL,ioos:station:DISL:CATA:1,2013-03-05T07:00:00Z,30.3085,-88.1395,14.63,1111122 
DISL,ioos:station:DISL:CATA:1,2013-03-05T07:30:00Z,30.3085,-88.1395,14.9,1111122 
DISL,ioos:station:DISL:CATA:1,2013-03-05T08:00:00Z,30.3085,-88.1395,14.6,1111122 
DISL,ioos:station:DISL:CATA:1,2013-03-05T08:30:00Z,30.3085,-88.1395,14.7,1111122 
DISL,ioos:station:DISL:CATA:1,2013-03-05T09:00:00Z,30.3085,-88.1395,14.84,1111122 
DISL,ioos:station:DISL:CATA:1,2013-03-05T09:30:00Z,30.3085,-88.1395,14.6,1111122 
DISL,ioos:station:DISL:CATA:1,2013-03-05T10:00:00Z,30.3085,-88.1395,14.7,1111122 
DISL,ioos:station:DISL:CATA:1,2013-03-05T10:30:00Z,30.3085,-88.1395,14.8,1111122 
DISL,ioos:station:DISL:CATA:1,2013-03-05T11:00:00Z,30.3085,-88.1395,15.08,1111122 
DISL,ioos:station:DISL:CATA:1,2013-03-05T11:30:00Z,30.3085,-88.1395,15.04,1111122 
DISL,ioos:station:DISL:CATA:1,2013-03-05T12:00:00Z,30.3085,-88.1395,14.18,1111122 
DISL,ioos:station:DISL:CATA:1,2013-03-05T12:30:00Z,30.3085,-88.1395,13.7,1111122 
DISL,ioos:station:DISL:CATA:1,2013-03-05T13:00:00Z,30.3085,-88.1395,14.97,1111122 
DISL,ioos:station:DISL:CATA:1,2013-03-05T13:30:00Z,30.3085,-88.1395,15.28,1111122 
DISL,ioos:station:DISL:CATA:1,2013-03-05T14:00:00Z,30.3085,-88.1395,15.04,1111122 
DISL,ioos:station:DISL:CATA:1,2013-03-05T14:30:00Z,30.3085,-88.1395,14.46,1111122 
DISL,ioos:station:DISL:CATA:1,2013-03-05T15:00:00Z,30.3085,-88.1395,14.29,1111122 
DISL,ioos:station:DISL:CATA:1,2013-03-05T15:30:00Z,30.3085,-88.1395,14.94,1111122 
DISL,ioos:station:DISL:CATA:1,2013-03-05T16:00:00Z,30.3085,-88.1395,15.13,1111122 
DISL,ioos:station:DISL:CATA:1,2013-03-05T16:30:00Z,30.3085,-88.1395,15.4,1111122 
DISL,ioos:station:DISL:CATA:1,2013-03-05T17:00:00Z,30.3085,-88.1395,15.37,1111122 
DISL,ioos:station:DISL:CATA:1,2013-03-05T17:30:00Z,30.3085,-88.1395,15.5,1111122 
DISL,ioos:station:DISL:CATA:1,2013-03-05T18:00:00Z,30.3085,-88.1395,15.81,1111122 
DISL,ioos:station:DISL:CATA:1,2013-03-05T18:30:00Z,30.3085,-88.1395,16.56,1111122 
DISL,ioos:station:DISL:CATA:1,2013-03-05T19:00:00Z,30.3085,-88.1395,16.12,1111122 
DISL,ioos:station:DISL:CATA:1,2013-03-05T19:30:00Z,30.3085,-88.1395,16.32,1111122 
DISL,ioos:station:DISL:CATA:1,2013-03-05T20:00:00Z,30.3085,-88.1395,16.15,1111122 
DISL,ioos:station:DISL:CATA:1,2013-03-05T20:30:00Z,30.3085,-88.1395,16.53,1111122 
DISL,ioos:station:DISL:CATA:1,2013-03-05T21:00:00Z,30.3085,-88.1395,16.67,1111122 
DISL,ioos:station:DISL:CATA:1,2013-03-05T21:30:00Z,30.3085,-88.1395,16.19,1111122 
DISL,ioos:station:DISL:CATA:1,2013-03-05T22:00:00Z,30.3085,-88.1395,16.7,1111122 
DISL,ioos:station:DISL:CATA:1,2013-03-05T22:30:00Z,30.3085,-88.1395,16.15,1111122 
DISL,ioos:station:DISL:CATA:1,2013-03-05T23:00:00Z,30.3085,-88.1395,16.15,1111122 
DISL,ioos:station:DISL:CATA:1,2013-03-05T23:30:00Z,30.3085,-88.1395,15.61,1111122 
DISL,ioos:station:DISL:CATA:1,2013-03-06T00:00:00Z,30.3085,-88.1395,15.16,1111122 
DISL,ioos:station:DISL:CATA:1,2013-03-06T00:30:00Z,30.3085,-88.1395,15.34,1111122 
DISL,ioos:station:DISL:CATA:1,2013-03-06T01:00:00Z,30.3085,-88.1395,18.02,1111122 
DISL,ioos:station:DISL:CATA:1,2013-03-06T01:30:00Z,30.3085,-88.1395,16.51,1111122 
DISL,ioos:station:DISL:CATA:1,2013-03-06T02:00:00Z,30.3085,-88.1395,15.55,1111122 
DISL,ioos:station:DISL:CATA:1,2013-03-06T02:30:00Z,30.3085,-88.1395,14.42,1111122 
DISL,ioos:station:DISL:CATA:1,2013-03-06T03:00:00Z,30.3085,-88.1395,14.05,1111122 
DISL,ioos:station:DISL:CATA:1,2013-03-06T03:30:00Z,30.3085,-88.1395,12.95,1111122 
DISL,ioos:station:DISL:CATA:1,2013-03-06T04:00:00Z,30.3085,-88.1395,12.09,1111122 
DISL,ioos:station:DISL:CATA:1,2013-03-06T04:30:00Z,30.3085,-88.1395,11.54,1111122 
DISL,ioos:station:DISL:CATA:1,2013-03-06T05:00:00Z,30.3085,-88.1395,10.84,1111122 
DISL,ioos:station:DISL:CATA:1,2013-03-06T05:30:00Z,30.3085,-88.1395,10.39,1111122 
DISL,ioos:station:DISL:CATA:1,2013-03-06T06:30:00Z,30.3085,-88.1395,9.99,1111122 
DISL,ioos:station:DISL:CATA:1,2013-03-06T07:00:00Z,30.3085,-88.1395,9.99,1111122 
DISL,ioos:station:DISL:CATA:1,2013-03-06T07:30:00Z,30.3085,-88.1395,10.09,1111122 
DISL,ioos:station:DISL:CATA:1,2013-03-06T08:00:00Z,30.3085,-88.1395,9.61,1111122 
DISL,ioos:station:DISL:CATA:1,2013-03-06T08:30:00Z,30.3085,-88.1395,8.28,1111122 
DISL,ioos:station:DISL:CATA:1,2013-03-06T09:00:00Z,30.3085,-88.1395,8.52,1111122 
DISL,ioos:station:DISL:CATA:1,2013-03-06T09:30:00Z,30.3085,-88.1395,8.08,1111122 
DISL,ioos:station:DISL:CATA:1,2013-03-06T10:00:00Z,30.3085,-88.1395,7.632,1111122 
DISL,ioos:station:DISL:CATA:1,2013-03-06T10:30:00Z,30.3085,-88.1395,6.946,1111122 
DISL,ioos:station:DISL:CATA:1,2013-03-06T11:00:00Z,30.3085,-88.1395,6.911,1111122 
DISL,ioos:station:DISL:CATA:1,2013-03-06T11:30:00Z,30.3085,-88.1395,7.083,1111122 
DISL,ioos:station:DISL:CATA:1,2013-03-06T12:00:00Z,30.3085,-88.1395,6.637,1111122 
DISL,ioos:station:DISL:CATA:1,2013-03-06T12:30:00Z,30.3085,-88.1395,5.883,1111122 
DISL,ioos:station:DISL:CATA:1,2013-03-06T13:00:00Z,30.3085,-88.1395,5.471,1111122 
DISL,ioos:station:DISL:CATA:1,2013-03-06T13:30:00Z,30.3085,-88.1395,6.019,1111122 
DISL,ioos:station:DISL:CATA:1,2013-03-06T14:00:00Z,30.3085,-88.1395,6.294,1111122 
DISL,ioos:station:DISL:CATA:1,2013-03-06T14:30:00Z,30.3085,-88.1395,6.637,1111122 
DISL,ioos:station:DISL:CATA:1,2013-03-06T15:00:00Z,30.3085,-88.1395,7.247,1111122 
DISL,ioos:station:DISL:CATA:1,2013-03-06T15:30:00Z,30.3085,-88.1395,7.756,1111122 
DISL,ioos:station:DISL:CATA:1,2013-03-06T16:00:00Z,30.3085,-88.1395,8.44,1111122 
DISL,ioos:station:DISL:CATA:1,2013-03-06T16:30:00Z,30.3085,-88.1395,9.02,1111122 
DISL,ioos:station:DISL:CATA:1,2013-03-06T17:00:00Z,30.3085,-88.1395,9.8,1111122 
DISL,ioos:station:DISL:CATA:1,2013-03-06T17:30:00Z,30.3085,-88.1395,10.24,1111122 
DISL,ioos:station:DISL:CATA:1,2013-03-06T18:00:00Z,30.3085,-88.1395,10.99,1111122 
DISL,ioos:station:DISL:CATA:1,2013-03-06T18:30:00Z,30.3085,-88.1395,11.34,1111122 
DISL,ioos:station:DISL:CATA:1,2013-03-06T19:00:00Z,30.3085,-88.1395,12.13,1111122 
DISL,ioos:station:DISL:CATA:1,2013-03-06T19:30:00Z,30.3085,-88.1395,12.64,1111122 
DISL,ioos:station:DISL:CATA:1,2013-03-06T20:00:00Z,30.3085,-88.1395,13.29,1111122 
DISL,ioos:station:DISL:CATA:1,2013-03-06T20:30:00Z,30.3085,-88.1395,13.56,1111122 
DISL,ioos:station:DISL:CATA:1,2013-03-06T21:00:00Z,30.3085,-88.1395,13.79,1111122 
DISL,ioos:station:DISL:CATA:1,2013-03-06T21:30:00Z,30.3085,-88.1395,13.99,1111122 
DISL,ioos:station:DISL:CATA:1,2013-03-06T22:00:00Z,30.3085,-88.1395,13.99,1111122 
DISL,ioos:station:DISL:CATA:1,2013-03-06T22:30:00Z,30.3085,-88.1395,14.34,1111122 
DISL,ioos:station:DISL:CATA:1,2013-03-06T23:00:00Z,30.3085,-88.1395,14.27,1111122 
DISL,ioos:station:DISL:CATA:1,2013-03-06T23:30:00Z,30.3085,-88.1395,13.87,1111122 
DISL,ioos:station:DISL:CATA:1,2013-03-07T00:00:00Z,30.3085,-88.1395,12.43,1111122 
DISL,ioos:station:DISL:CATA:1,2013-03-07T00:30:00Z,30.3085,-88.1395,11.99,1111122 
DISL,ioos:station:DISL:CATA:1,2013-03-07T01:00:00Z,30.3085,-88.1395,11.45,1111122 
DISL,ioos:station:DISL:CATA:1,2013-03-07T01:30:00Z,30.3085,-88.1395,10.36,1111122 
DISL,ioos:station:DISL:CATA:1,2013-03-07T02:00:00Z,30.3085,-88.1395,9.78,1111122 
DISL,ioos:station:DISL:CATA:1,2013-03-07T02:30:00Z,30.3085,-88.1395,9.99,1111122 
DISL,ioos:station:DISL:CATA:1,2013-03-07T03:00:00Z,30.3085,-88.1395,9.3,1111122 